This is the latest recevied weather packets stored in our database for station/object KC8UZG. If no packets are shown the sender has not sent any weather packets the latest 10 day(s).
| Time | Temp. | Humidity | Pressure | Rain* | Wind** | Luminosity | Snow |
|---|---|---|---|---|---|---|---|
| 1778091323 | 13.89° C | 63% | 1012.2 hPa | 0 mm | - | 288 W/m² | - |
| 1778090729 | 13.89° C | 62% | 1012.5 hPa | 0 mm | - | 235 W/m² | - |
| 1778090135 | 13.89° C | 64% | 1012.5 hPa | 0 mm | - | 145 W/m² | - |
| 1778089541 | 13.89° C | 63% | 1012.5 hPa | 0 mm | - | 162 W/m² | - |
| 1778088920 | 14.44° C | 65% | 1012.8 hPa | 0 mm | - | 264 W/m² | - |
| 1778088326 | 13.89° C | 64% | 1012.5 hPa | 0 mm | - | 243 W/m² | - |
| 1778087732 | 13.89° C | 64% | 1012.5 hPa | 0 mm | - | 190 W/m² | - |
| 1778087138 | 13.89° C | 65% | 1012.5 hPa | 0 mm | - | 220 W/m² | - |
| 1778086517 | 14.44° C | 66% | 1012.5 hPa | 0 mm | - | 277 W/m² | - |
| 1778085922 | 13.89° C | 65% | 1012.5 hPa | 0 mm | - | 271 W/m² | - |
| 1778085329 | 13.89° C | 65% | 1012.2 hPa | 0 mm | - | 351 W/m² | - |
| 1778084735 | 13.89° C | 66% | 1012.5 hPa | 0 mm | - | 285 W/m² | - |
| 1778084141 | 13.89° C | 65% | 1012.5 hPa | 0 mm | - | 307 W/m² | - |
| 1778083519 | 13.89° C | 68% | 1012.6 hPa | 0 mm | - | 297 W/m² | - |
| 1778082926 | 13.33° C | 70% | 1012.3 hPa | 0 mm | - | 415 W/m² | - |
| 1778082331 | 12.78° C | 70% | 1012.2 hPa | 0 mm | - | 290 W/m² | - |
| 1778081737 | 13.33° C | 72% | 1012.5 hPa | 0 mm | - | 255 W/m² | - |
| 1778081117 | 12.22° C | 73% | 1012.3 hPa | 0 mm | - | 342 W/m² | - |
| 1778080522 | 12.22° C | 73% | 1011.9 hPa | 0 mm | - | 225 W/m² | - |
| 1778079929 | 12.22° C | 76% | 1011.7 hPa | 0 mm | - | 184 W/m² | - |
| 1778079335 | 12.22° C | 76% | 1011.5 hPa | 0 mm | - | 365 W/m² | - |
| 1778078741 | 11.67° C | 78% | 1011.2 hPa | 0 mm | - | 353 W/m² | - |
| 1778078120 | 10.56° C | 79% | 1011.5 hPa | 0 mm | - | 325 W/m² | - |
| 1778077525 | 10° C | 80% | 1011.5 hPa | 0 mm | - | 95 W/m² | - |
| 1778076931 | 10° C | 80% | 1011.5 hPa | 0 mm | - | 43 W/m² | - |
* Rain latest hour (hover to see other rain measurements)
** Current wind speed in m/s (hover to see current wind gust speed)